Location: Unspecified
(0.0000°N, 0.0000°E)
Time: 14:19:17
(UTC+00:00)

Vanguard 2 - All Passes

Search period start: 01 August 2021 00:00
Search period end: 11 August 2021 00:00
Orbit: 552 x 2937 km, 32.9° (Epoch: 31 July)

Date Brightness Start Highest point End Pass type
(mag) Time Alt. Az. Time Alt. Az. Time Alt. Az.
01 Aug - 02:06:43 10° WNW 02:09:33 15° NW 02:12:04 10° N night (unlit)
01 Aug - 08:42:41 10° NNE 08:45:06 11° NE 08:47:47 10° NE daylight
01 Aug - 10:45:42 10° NNW 10:55:34 49° NE 11:10:39 10° ESE daylight
01 Aug - 12:54:14 10° WNW 13:07:18 69° SW 13:25:12 10° SE daylight
01 Aug - 15:07:57 10° W 15:21:43 31° SSW 15:36:21 10° SSE daylight
01 Aug - 17:29:49 10° SW 17:38:34 15° SSW 17:46:29 10° SSE daylight
01 Aug - 19:50:12 10° SSW 19:55:36 13° S 20:00:12 10° SSE visible
01 Aug - 22:01:07 10° SSW 22:09:13 25° SSE 22:14:46 10° ESE visible
02 Aug - 00:11:49 10° WSW 00:19:17 82° NW 00:24:01 10° NE night (unlit)
02 Aug - 08:57:49 10° N 09:03:09 17° NE 09:10:04 10° ENE daylight
02 Aug - 11:03:02 10° NW 11:13:17 64° NE 11:29:25 10° ESE daylight
02 Aug - 13:12:30 10° WNW 13:25:33 55° SSW 13:42:55 10° SE daylight
02 Aug - 15:27:53 10° WSW 15:40:40 25° SSW 15:53:53 10° SSE daylight
02 Aug - 17:50:38 10° SSW 17:58:13 14° S 18:05:02 10° SSE daylight
02 Aug - 20:07:31 10° SSW 20:14:47 16° S 20:20:34 10° SE visible
02 Aug - 22:18:23 10° SW 22:27:37 36° SSE 22:33:27 10° E visible
03 Aug - 00:30:03 10° WSW 00:36:55 47° NW 00:41:26 10° NE night (unlit)
03 Aug - 09:14:14 10° NNW 09:20:58 25° NE 09:30:35 10° E daylight
03 Aug - 11:20:35 10° NW 11:31:06 83° NE 11:47:47 10° ESE daylight
03 Aug - 13:31:07 10° W 13:43:59 43° SSW 14:00:30 10° SE daylight
03 Aug - 15:48:18 10° WSW 15:59:55 21° SSW 16:11:34 10° SSE daylight
03 Aug - 18:10:30 10° SSW 18:17:54 14° S 18:24:27 10° SSE daylight
03 Aug - 20:24:46 10° SSW 20:33:45 20° SSE 20:40:24 10° ESE visible
03 Aug - 22:35:54 10° SW 22:45:47 53° SSE 22:51:42 10° ENE visible
04 Aug - 00:48:48 10° W 00:54:25 27° NW 00:58:29 10° NNE night (unlit)
04 Aug - 09:31:06 10° NNW 09:38:38 36° NE 09:50:16 10° E daylight
04 Aug - 11:38:22 10° WNW 11:49:03 77° SW 12:05:52 10° SE daylight
04 Aug - 13:50:08 10° W 14:02:39 34° SSW 14:18:03 10° SSE daylight
04 Aug - 16:09:01 10° SW 16:19:25 18° SSW 16:29:34 10° SSE daylight
04 Aug - 18:29:16 10° SSW 18:37:30 15° S 18:44:31 10° SE visible
04 Aug - 20:42:03 10° SSW 20:52:31 27° SSE 20:59:42 10° ESE visible
04 Aug - 22:53:41 10° SW 23:03:45 79° SE 23:09:38 10° ENE visible
05 Aug - 01:08:20 10° WNW 01:11:57 16° NW 01:14:54 10° N night (unlit)
05 Aug - 09:48:14 10° NW 09:56:14 50° NE 10:09:21 10° ESE daylight
05 Aug - 11:56:24 10° WNW 12:07:12 60° SSW 12:23:42 10° SE daylight
05 Aug - 14:09:36 10° WSW 14:21:33 28° SSW 14:35:38 10° SSE daylight
05 Aug - 16:29:41 10° SW 16:39:08 16° S 16:48:09 10° SSE daylight
05 Aug - 18:47:19 10° SSW 18:56:55 18° S 19:04:42 10° SE visible
05 Aug - 20:59:27 10° SW 21:11:05 36° SSE 21:18:31 10° E visible
05 Aug - 23:11:47 10° WSW 23:21:30 69° NW 23:27:15 10° NE night (unlit)
06 Aug - 08:01:02 10° N 08:04:49 15° NE 08:09:31 10° ENE daylight
06 Aug - 10:05:35 10° NW 10:13:54 69° NE 10:27:58 10° ESE daylight
06 Aug - 12:14:44 10° W 12:25:32 47° SSW 12:41:23 10° SE daylight
06 Aug - 14:29:33 10° WSW 14:40:42 23° SSW 14:53:19 10° SSE daylight
06 Aug - 16:49:46 10° SSW 16:58:55 16° S 17:07:28 10° SSE daylight
06 Aug - 19:05:00 10° SSW 19:16:06 22° SSE 19:24:36 10° ESE visible
06 Aug - 21:16:59 10° SW 21:29:26 49° SSE 21:36:56 10° ENE visible
06 Aug - 23:30:16 10° WSW 23:39:05 44° NW 23:44:34 10° NNE night (unlit)
07 Aug - 08:17:11 10° N 08:22:29 23° NE 08:29:58 10° E daylight
07 Aug - 10:23:11 10° NW 10:31:41 88° SW 10:46:13 10° SE daylight
07 Aug - 12:33:27 10° W 12:44:05 36° SSW 12:58:58 10° SE daylight
07 Aug - 14:49:52 10° SW 15:00:08 19° SSW 15:11:18 10° SSE daylight
07 Aug - 17:08:59 10° SSW 17:18:41 16° S 17:27:28 10° SE daylight
07 Aug - 19:22:31 10° SSW 19:35:03 28° SSE 19:44:05 10° ESE visible
07 Aug - 21:34:44 10° SW 21:47:35 68° SSE 21:55:01 10° ENE visible
07 Aug - 23:49:15 10° W 23:56:35 28° NW 00:01:33 10° NNE night (unlit)
08 Aug - 08:33:59 10° NNW 08:40:01 35° NE 08:49:28 10° ESE daylight
08 Aug - 10:41:02 10° WNW 10:49:40 67° SSW 11:04:11 10° SE daylight
08 Aug - 12:52:35 10° WSW 13:02:52 29° SSW 13:16:30 10° SSE daylight
08 Aug - 15:10:16 10° SW 15:19:47 17° S 15:29:47 10° SSE daylight
08 Aug - 17:27:26 10° SSW 17:38:17 19° S 17:47:45 10° SE daylight
08 Aug - 19:40:02 10° SW 19:53:47 36° SSE 20:03:06 10° E visible
08 Aug - 21:52:43 10° SW 22:05:29 87° NW 22:12:48 10° NE visible
09 Aug - 00:09:01 10° W 00:14:08 17° NW 00:18:03 10° N night (unlit)
09 Aug - 08:51:06 10° NW 08:57:33 52° NE 09:08:20 10° ESE daylight
09 Aug - 10:59:10 10° WNW 11:07:52 50° SSW 11:21:56 10° SE daylight
09 Aug - 13:12:09 10° WSW 13:21:53 23° SSW 13:34:07 10° SSE daylight
09 Aug - 15:30:22 10° SSW 15:39:36 16° S 15:49:00 10° SSE daylight
09 Aug - 17:45:23 10° SSW 17:57:40 22° SSE 18:07:53 10° ESE daylight
09 Aug - 19:57:35 10° SW 20:12:17 47° SSE 20:21:43 10° E visible
09 Aug - 22:11:01 10° WSW 22:23:12 62° NW 22:30:19 10° NE visible
10 Aug - 07:04:28 10° NNE 07:06:49 12° NE 07:09:34 10° ENE daylight
10 Aug - 09:08:31 10° NW 09:15:11 76° NE 09:26:47 10° ESE daylight
10 Aug - 11:17:39 10° W 11:26:17 37° SSW 11:39:30 10° SE daylight
10 Aug - 13:32:08 10° SW 13:41:10 19° SSW 13:51:56 10° SSE daylight
10 Aug - 15:49:46 10° SSW 15:59:25 16° S 16:09:00 10° SE daylight
10 Aug - 18:03:04 10° SSW 18:16:47 27° SSE 18:27:39 10° ESE visible
10 Aug - 20:15:17 10° SW 20:30:34 61° SSE 20:40:00 10° ENE visible
10 Aug - 22:29:43 10° WSW 22:40:47 43° NW 22:47:35 10° NNE visible
